Otter Lake, Indiana
Current Conditions -  °F | °C
As of 10:15 AM on Tuesday 21 Oct 2014 (Local Time) from KANQ Reporting Station
Overcast Overcast  
Wind Chill: 41°   Ceiling: 900
Heat Index: 45°   Visibility: 9mi
Dew Point: 45°   Wind: 7mph
Humidity: 100%   Direction: 340°NNW
Pressure: 30.04"   Gusts: NA
Location:  41.7284°N, 84.9169°W
Report Text: KANQ 211415Z AUTO 34006KT 9SM OVC009 07/07 A3004 RMK
Loading
Personal Weather Stations






























Interactive Weather Map
Tropical Storm Tracking
New forecast layout! Learn more

10-Day Weather Forecast

Advertisements
Track Severe Weather on mobile